Time,TemperatureF,DewpointF,PressureIn,WindDirection,WindDirectionDegrees,WindSpeedMPH,WindSpeedGustMPH,Humidity,HourlyPrecipIn,Conditions,Clouds,dailyrainin,SoftwareType,DateUTC
2013-04-08 00:03:00,42.0,-99.9,-100.00,WNW,289,6.0,10.0,-999,-99.99,,,-99.99,,2013-04-08 07:03:00,
2013-04-08 00:12:00,42.0,-99.9,-100.00,WNW,289,6.0,10.0,-999,-99.99,,,-99.99,,2013-04-08 07:12:00,
2013-04-08 01:02:00,44.0,-99.9,-100.00,WSW,247,6.0,8.0,-999,-99.99,,,-99.99,,2013-04-08 08:02:00,
2013-04-08 01:12:00,44.0,-99.9,-100.00,WSW,247,6.0,8.0,-999,-99.99,,,-99.99,,2013-04-08 08:12:00,
2013-04-08 02:03:00,44.0,-99.9,-100.00,NW,311,6.0,9.0,-999,-99.99,,,-99.99,,2013-04-08 09:03:00,
2013-04-08 02:12:00,44.0,-99.9,-100.00,NW,311,6.0,9.0,-999,-99.99,,,-99.99,,2013-04-08 09:12:00,
2013-04-08 03:03:00,44.0,-99.9,-100.00,NNW,339,5.0,12.0,-999,-99.99,,,-99.99,,2013-04-08 10:03:00,
2013-04-08 03:13:00,44.0,-99.9,-100.00,NNW,339,5.0,12.0,-999,-99.99,,,-99.99,,2013-04-08 10:13:00,
2013-04-08 04:03:00,43.0,-99.9,-100.00,NW,306,5.0,8.0,-999,-99.99,,,-99.99,,2013-04-08 11:03:00,
2013-04-08 04:12:00,43.0,-99.9,-100.00,NW,306,5.0,8.0,-999,-99.99,,,-99.99,,2013-04-08 11:12:00,
2013-04-08 05:04:00,41.0,-99.9,-100.00,WNW,296,6.0,10.0,-999,-99.99,,,-99.99,,2013-04-08 12:04:00,
2013-04-08 05:12:00,41.0,-99.9,-100.00,WNW,296,6.0,10.0,-999,-99.99,,,-99.99,,2013-04-08 12:12:00,
2013-04-08 06:03:00,39.0,-99.9,-100.00,WSW,246,3.0,6.0,-999,-99.99,,,-99.99,,2013-04-08 13:03:00,
2013-04-08 06:12:00,39.0,-99.9,-100.00,WSW,246,3.0,6.0,-999,-99.99,,,-99.99,,2013-04-08 13:12:00,
2013-04-08 07:03:00,40.0,-99.9,-100.00,SSW,200,1.0,3.0,-999,-99.99,,,-99.99,,2013-04-08 14:03:00,
2013-04-08 07:12:00,40.0,-99.9,-100.00,SSW,200,1.0,3.0,-999,-99.99,,,-99.99,,2013-04-08 14:12:00,
2013-04-08 08:03:00,42.0,-99.9,-100.00,SW,220,3.0,6.0,-999,-99.99,,,-99.99,,2013-04-08 15:03:00,
2013-04-08 08:12:00,42.0,-99.9,-100.00,SW,220,3.0,6.0,-999,-99.99,,,-99.99,,2013-04-08 15:12:00,
2013-04-08 09:04:00,46.0,-99.9,-100.00,WSW,247,3.0,7.0,-999,-99.99,,,-99.99,,2013-04-08 16:04:00,
2013-04-08 09:13:00,46.0,-99.9,-100.00,WSW,247,3.0,7.0,-999,-99.99,,,-99.99,,2013-04-08 16:13:00,
2013-04-08 10:03:00,48.0,-99.9,-100.00,WNW,282,6.0,10.0,-999,-99.99,,,-99.99,,2013-04-08 17:03:00,
2013-04-08 10:12:00,48.0,-99.9,-100.00,WNW,282,6.0,10.0,-999,-99.99,,,-99.99,,2013-04-08 17:12:00,
2013-04-08 11:02:00,50.0,-99.9,-100.00,WNW,296,8.0,12.0,-999,-99.99,,,-99.99,,2013-04-08 18:02:00,
2013-04-08 11:12:00,50.0,-99.9,-100.00,WNW,296,8.0,12.0,-999,-99.99,,,-99.99,,2013-04-08 18:12:00,
2013-04-08 12:03:00,52.0,-99.9,-100.00,NNE,20,6.0,10.0,-999,-99.99,,,-99.99,,2013-04-08 19:03:00,
2013-04-08 12:13:00,52.0,-99.9,-100.00,NNE,20,6.0,10.0,-999,-99.99,,,-99.99,,2013-04-08 19:13:00,
2013-04-08 13:02:00,54.0,-99.9,-100.00,NNE,24,5.0,12.0,-999,-99.99,,,-99.99,,2013-04-08 20:02:00,
2013-04-08 13:12:00,54.0,-99.9,-100.00,NNE,24,5.0,12.0,-999,-99.99,,,-99.99,,2013-04-08 20:12:00,
2013-04-08 14:02:00,55.0,-99.9,-100.00,NNE,18,7.0,14.0,-999,-99.99,,,-99.99,,2013-04-08 21:02:00,
2013-04-08 14:12:00,55.0,-99.9,-100.00,NNE,18,7.0,14.0,-999,-99.99,,,-99.99,,2013-04-08 21:12:00,
2013-04-08 15:14:00,56.0,-99.9,-100.00,NE,54,7.0,12.0,-999,-99.99,,,-99.99,,2013-04-08 22:14:00,
2013-04-08 16:03:00,57.0,-99.9,-100.00,East,89,6.0,14.0,-999,-99.99,,,-99.99,,2013-04-08 23:03:00,
2013-04-08 16:13:00,57.0,-99.9,-100.00,East,89,6.0,14.0,-999,-99.99,,,-99.99,,2013-04-08 23:13:00,
2013-04-08 17:02:00,58.0,-99.9,-100.00,ENE,70,6.0,13.0,-999,-99.99,,,-99.99,,2013-04-09 00:02:00,
2013-04-08 17:13:00,58.0,-99.9,-100.00,ENE,70,6.0,13.0,-999,-99.99,,,-99.99,,2013-04-09 00:13:00,
2013-04-08 18:03:00,58.0,-99.9,-100.00,North,3,3.0,9.0,-999,-99.99,,,-99.99,,2013-04-09 01:03:00,
2013-04-08 18:12:00,58.0,-99.9,-100.00,North,3,3.0,9.0,-999,-99.99,,,-99.99,,2013-04-09 01:12:00,
2013-04-08 19:02:00,57.0,-99.9,-100.00,North,353,5.0,9.0,-999,-99.99,,,-99.99,,2013-04-09 02:02:00,
2013-04-08 19:13:00,57.0,-99.9,-100.00,North,353,5.0,9.0,-999,-99.99,,,-99.99,,2013-04-09 02:13:00,
2013-04-08 20:02:00,55.0,-99.9,-100.00,NW,309,3.0,7.0,-999,-99.99,,,-99.99,,2013-04-09 03:02:00,
2013-04-08 20:12:00,55.0,-99.9,-100.00,NW,309,3.0,7.0,-999,-99.99,,,-99.99,,2013-04-09 03:12:00,
2013-04-08 21:03:00,53.0,-99.9,-100.00,SSW,192,2.0,5.0,-999,-99.99,,,-99.99,,2013-04-09 04:03:00,
2013-04-08 21:13:00,53.0,-99.9,-100.00,SSW,192,2.0,5.0,-999,-99.99,,,-99.99,,2013-04-09 04:13:00,